Overview Statistics Trail Chart Weather Telemetry Raw packets
 

This is the latest recevied weather packets stored in our database for station/object IZ5RIE-13. If no packets are shown the sender has not sent any weather packets the latest 10 day(s).

<< 35 36 37 38 39 40 41 >>
Time Temp. Humidity Pressure Rain* Wind** Luminosity Snow
1788008075 37.22° C 58% 1017.1 hPa - - - -
1788007175 37.22° C 63% 1017 hPa - - - -
1788006275 37.78° C 58% 1017.2 hPa - - - -
1788005375 36.67° C 64% 1017.1 hPa - - - -
1788004475 36.67° C 58% 1017.3 hPa - - - -
1788003575 36.67° C 55% 1017.4 hPa - - - -
1788002674 36.67° C 69% 1017.5 hPa - - - -
1788001774 35.56° C 87% 1017.6 hPa - - - -
1788000874 35° C 94% 1017.6 hPa - - - -
1787999974 34.44° C 100% 1017.6 hPa - - - -
1787999074 33.89° C 100% 1017.7 hPa - - - -
1787998174 33.33° C 100% 1017.9 hPa - - - -
1787997273 34.44° C 100% 1017.9 hPa - - - -
1787996373 34.44° C 100% 1017.9 hPa - - - -
1787995473 33.89° C 100% 1017.8 hPa - - - -
1787994573 32.78° C 100% 1018 hPa - - - -
1787993673 32.78° C 100% 1017.9 hPa - - - -
1787992773 31.67° C 100% 1017.8 hPa - - - -
1787991872 31.11° C 100% 1017.6 hPa - - - -
1787990972 28.89° C 100% 1017.6 hPa - - - -
1787990072 28.89° C 100% 1017.5 hPa - - - -
1787989172 27.78° C 100% 1017.6 hPa - - - -
1787988271 27.78° C 100% 1017.4 hPa - - - -
1787987801 27.78° C 100% 1017.4 hPa - - - -
1787986901 27.22° C 100% 1017.3 hPa - - - -

* Rain since midnight (hover to see other rain measurements)
** Current wind speed in m/s (hover to see current wind gust speed)